Regional Weather Roundup
Issued by NWS

Current Version | Previous Version | Text Only | Print | Product List | Glossary On
Versions: 1 2 3 4 5 6 7 8 9 10 11 12 13 14 15 16 17 18 19 20 21 22 23 24 25 26 27 28 29 30 31 32 33 34 35 36 37 38 39 40 41 42 43 44 45 46 47 48 49 50
000
ASUS45 KTFX 250804
RWRMT
MONTANA HOURLY WEATHER ROUNDUP
NATIONAL WEATHER SERVICE GREAT FALLS MT
204 AM MDT FRI APR 25 2014

NOTE: "FAIR" INDICATES FEW OR NO CLOUDS BELOW 12000 FEET WITH NO
SIGNIFICANT WEATHER AND/OR OBSTRUCTIONS TO VISIBILITY.

* THESE STATIONS ARE NOT UNDER NWS QUALITY CONTROL. THEY DO NOT
   REPORT WEATHER SUCH AS PRECIPITATION OR FOG.

MTZ001>007-043-250900-
WEST OF THE DIVIDE
CITY           SKY/WX    TMP DP  RH WIND       PRES   REMARKS
KALISPELL      CLOUDY    39  37  93 SE7       29.82S WCI  34
MISSOULA       MOCLDY    43  34  71 S7        29.87S
BUTTE          CLOUDY    36  34  92 S3        29.85F
MULLAN PASS    FOG       30  30 100 S3        29.80F VSB M1/4
* ESSEX        N/A       35  34  96 N/A        N/A
* LINCOLN      N/A       33  31  92 SW2G7      N/A
* LOOKOUT PASS N/A       35  34  96 E2         N/A
* POLSON       N/A       39  34  82 SE2        N/A
* RONAN APT    CLOUDY    43  36  76 N/A        N/A
* SEELEY LAKE  N/A       32  31  96 NE1        N/A
* THOMP F APT  MOCLDY    35  32  89 E3G9       N/A
$$

MTZ008-052>055-250900-
SOUTHWEST MONTANA
CITY           SKY/WX    TMP DP  RH WIND       PRES   REMARKS
BOZEMAN        MOCLDY    41  36  82 CALM      29.84F
DILLON         MOCLDY    37  28  70 S9        29.83F WCI  30
W YELLOWSTONE  N/A       33  33 100 SW2G10     N/A
* THREE FORKS  PTCLDY    43  43 100 N/A        N/A
* BOULDER HILL N/A       36  26  67 S6         N/A   WCI  31
* MONIDA PASS  N/A       33  33 100 SE10       N/A   WCI  25
* RAYNOLDS PAS N/A       34  18  52 S15        N/A   WCI  24
* WHITEHALL    N/A       42  35  76 W4G12      N/A
* WISE RIVER   N/A       33  32  96 W3         N/A
$$

MTZ009>010-012-014-046-048-049-054-250900-
EAST SLOPES AND CENTRAL MONTANA
CITY           SKY/WX    TMP DP  RH WIND       PRES   REMARKS
CUT BANK       MOCLDY    41  30  65 W18       29.73F
GREAT FALLS    PTCLDY    43  28  56 SW15      29.76R
HELENA         MOCLDY    43  32  65 CALM      29.81F
MALMSTROM AFB  PTCLDY    43  27  53 SW12      29.73R
* CONRAD       PTCLDY    36  28  73 N/A        N/A
* DEARBORN     N/A       47  27  46 S10G16     N/A
* EAST GLACIER N/A       36  28  73 SW17G25    N/A   WCI  26
* MONARCH      N/A       39  22  51 S9G16      N/A   WCI  33
* PENDROY      N/A       36  24  62 N2         N/A
* ROGERS PASS  N/A       35  28  76 SE10G17    N/A   WCI  27
* SAINT MARY   N/A       39  28  65 S8G24      N/A   WCI  33
* SWEET GRASS  N/A       39  33  79 SW17       N/A   WCI  30
$$

MTZ011-013-016-021-035-040-045-047-050-051-250900-
NORTH CENTRAL MONTANA
CITY           SKY/WX    TMP DP  RH WIND       PRES   REMARKS
HAVRE          PTCLDY    39  37  93 SW12      29.72S WCI  32
LEWISTOWN      CLEAR     37  28  70 CALM      29.77F
* CHESTER      N/A       41  31  68 S1         N/A
* DENTON       N/A       35  29  79 S1G7       N/A
* GEYSER       N/A       44  26  49 SW14G19    N/A
* JUDITH GAP   N/A       35  31  85 SE4        N/A
* LOMA         N/A       42  33  71 N/A        N/A
$$

MTZ017>020-022>027-061-062-250900-
NORTHEAST MONTANA
CITY           SKY/WX    TMP DP  RH WIND       PRES   REMARKS
GLASGOW        CLEAR     39  32  76 CALM      29.72S
GLENDIVE       CLOUDY    45  32  60 W5        29.76S
JORDAN         CLEAR     34  30  85 W7        29.74F WCI  28
SIDNEY         CLOUDY    52  30  43 W8        29.75R
WOLF POINT     PTCLDY    39  28  65 W3        29.73R
* BEAVER HILL  N/A       46  33  61 S9         N/A
* CIRCLE       N/A       46  34  63 N/A        N/A
* LINDSAY DVD  N/A       44  32  63 SW7        N/A
* NAVAJO       N/A       40  26  57 NW6        N/A   WCI  36
* SACO         N/A       40  32  73 S1G6       N/A
$$

MTZ028>042-056>058-250900-
SOUTHCENTRAL AND SOUTHEAST MONTANA
CITY           SKY/WX    TMP DP  RH WIND       PRES   REMARKS
BAKER          PTCLDY    41  30  65 S13       29.77S
BILLINGS       CLEAR     45  34  65 SW13      29.80S
LIVINGSTON     MOCLDY    37  34  89 NW8       29.81F WCI  31
MILES CITY     CLEAR     41  34  76 SE5       29.77R
* LAUREL APT   CLEAR     37  23  57 W6         N/A   WCI  32
* ROUNDUP APT  CLEAR     39  30  70 N/A        N/A
* LAME DEER    N/A       43  30  60 SW6        N/A
* REED POINT   N/A       34  33  96 N/A        N/A
* ROSCOE HILL  N/A       43  27  53 SW13G21    N/A
$$

REGIONAL REPORTS...DAKOTAS
CITY           SKY/WX    TMP DP  RH WIND       PRES   REMARKS
WILLISTON      PTCLDY    34  28  79 CALM      29.71S
DICKINSON      PTCLDY    37  28  70 W9        29.73S WCI  30
CROSBY         N/A      N/A N/A N/A N/A        N/A
TIOGA          CLEAR     30  30 100 CALM      29.74S
WATFORD CITY   CLOUDY    36  28  73 CALM      29.71S
BISMARCK       MOCLDY    30  27  89 CALM      29.76S
GRAND FORKS    FOG       37  37 100 CALM      29.72S VSB 1
FARGO          FOG       41  39  93 NW6       29.72S VSB 3
BUFFALO SD     PTCLDY    43  30  60 NW5       29.73F
RAPID CITY     MOCLDY    41  28  60 W5        29.82S
$$

REGIONAL REPORTS...WYOMING/IDAHO/WASHINGTON
CITY           SKY/WX    TMP DP  RH WIND       PRES   REMARKS
GILLETTE       CLEAR     34  25  70 S6        29.83F WCI  29
SHERIDAN       CLOUDY    37  32  82 CALM      29.82F
CODY           PTCLDY    45  28  51 S12       29.83F
YELLOWSTONE LA PTCLDY    28  27  96 CALM      29.94F
SALMON         MOCLDY    37  32  82 E3        29.85F
MULLAN PASS    FOG       30  30 100 S3        29.80S VSB M1/4
SPOKANE        CLOUDY    45  36  71 S9        29.79R

$$




USA.gov is the U.S. government's official web portal to all federal, state and local government web resources and services.